Hourly Data Report for September 02, 2017

All times are specified in Local Standard Time (LST). Add 1 hour to adjust for Daylight Saving Time where and when it is observed.

HALL BEACH A
NUNAVUT

68°46'33.000" N
81°14'33.000" W
9.10 m
2402354
71293
YUX

Related Data

No related data is available for this station

Download Data

Hourly Data (September 2017)
Hourly Data Report for September 2, 2017
Temp Definition
°C
Dew Point Temp Definition
°C
Rel Hum Definition
%
Wind Dir Definition
10's deg

Wind Spd Definition
km/h
Visibility Definition
km
Stn Press Definition
kPa
Hmdx Definition


Wind Chill Definition


Weather Definition


TIME
00:00 Legend Double Dagger 2.3 0.5 88 34 26 16.1 100.53     LegendNANA
01:00 Legend Double Dagger 2.0 0.4 89 35 26 16.1 100.57     LegendNANA
02:00 Legend Double Dagger 1.8 0.3 90 35 24 16.1 100.58     LegendNANA
03:00 Legend Double Dagger 1.7 0.5 92 36 24 16.1 100.62     LegendNANA
04:00 Legend Double Dagger 1.7 0.4 91 35 21 16.1 100.67     LegendNANA
05:00 Legend Double Dagger 1.4 0.1 91 35 22 16.1 100.73     LegendNANA
06:00 Legend Double Dagger 1.6 0.1 90 36 22 16.1 100.76     LegendNANA
07:00 Legend Double Dagger 2.1 0.3 88 36 26 16.1 100.75     LegendNANA
08:00 Legend Double Dagger 2.6 0.5 86 1 24 16.1 100.77     LegendNANA
09:00 Legend Double Dagger 3.0 0.3 82 1 28 16.1 100.74     LegendNANA
10:00 Legend Double Dagger 3.3 0.7 83 1 26 16.1 100.74     LegendNANA
11:00 Legend Double Dagger 3.7 0.8 81 2 28 16.1 100.75     LegendNANA
12:00 Legend Double Dagger 3.8 0.2 77 2 24 16.1 100.74     LegendNANA
13:00 Legend Double Dagger 3.6 0.4 79 2 24 16.1 100.76     LegendNANA
14:00 Legend Double Dagger 4.0 0.4 77 2 28 16.1 100.76     LegendNANA
15:00 Legend Double Dagger 4.2 0.4 76 2 26 16.1 100.75     LegendNANA
16:00 Legend Double Dagger 4.3 0.9 79 2 21 16.1 100.78     LegendNANA
17:00 Legend Double Dagger 4.2 0.9 79 2 18 16.1 100.78     LegendNANA
18:00 Legend Double Dagger 3.8 0.9 81 2 17 16.1 100.80     LegendNANA
19:00 Legend Double Dagger 3.4 0.6 82 1 18 16.1 100.85     LegendNANA
20:00 Legend Double Dagger 2.5 0.4 86 2 17 16.1 100.87     LegendNANA
21:00 Legend Double Dagger 2.1 0.2 88 2 17 16.1 100.88     LegendNANA
22:00 Legend Double Dagger 1.8 0.3 90 2 15 16.1 100.88     LegendNANA
23:00 Legend Double Dagger 1.4 0.1 91 2 13 16.1 100.91     LegendNANA

Notes on Data Quality.

Legend

  • E = Estimated
  • M = Missing
  • NA = Not Available
  • ‡ = Partner data that is not subject to review by the National Climate Archives
Date modified: